Location: Kolin
(50.0330°N, 15.2000°E)
Time: 10:40:54
(UTC+02:00)

ISS - Pass Details

Date: 19 May 2021
Orbit: 417 x 422 km, 51.6° (Epoch: 13 June)

Event Time Altitude Azimuth Distance (km) Brightness Sun altitude
Rises 23:42:48 0° 279° (W) 2,367 0.4 -18.2°
Reaches altitude 10° 23:44:54 10° 282° (WNW) 1,504 -0.6 -18.3°
Maximum altitude 23:48:16 67° 6° (N) 460 -3.4 -18.4°
Enters shadow 23:50:21 21° 85° (E) 1,000 -2.0 -18.5°
